Weather History for Hatteras, NC

Change the Weather History Date:

Friday, August 24, 2012

  Actual Average Record
Temperature  
Mean Temperature 78 °F 78 °F  
Max Temperature 83 °F 84 °F 91 °F (1968)
Min Temperature 73 °F 73 °F 59 °F (1978)
Degree Days  
Heating Degree Days 0 0  
Month to date heating degree days 0 0  
Since 1 June heating degree days 0 3  
Since 1 July heating degree days 0 0  
Cooling Degree Days 13 13  
Month to date cooling degree days 362 329  
Year to date cooling degree days 1543 1217  
Since 1 June cooling degree days 1218 1074  
Growing Degree Days 28 (Base 50)    
Moisture  
Dew Point 72 °F    
Average Humidity 82    
Maximum Humidity 94    
Minimum Humidity 69    
Precipitation  
Precipitation 0.40 in 0.25 in 5.27 in (2010)
Month to date precipitation 4.75 5.20  
Year to date precipitation 35.65 35.46  
Snow  
Snow 0.00 in - - ()
Month to date snowfall 0.0  
Since 1 July snowfall 0.0  
Snow Depth 0.00 in    
Sea Level Pressure  
Sea Level Pressure 30.06 in    
Wind  
Wind Speed 7 mph (ENE)    
Max Wind Speed 16 mph    
Max Gust Speed 24 mph    
Visibility 10 miles    
Events Rain    
T = Trace of Precipitation, MM = Missing Value Source: NWS Daily Summary

Daily Weather History Graph

Daily Weather History Graph

Search for Another Location

Airport:

Trip Planner

Search our weather history database for the weather conditions in past years. The results will help you decide how hot, cold, wet, or windy it might be!

Date:

Astronomy

Aug. 24, 2012 Rise Set
Actual Time 6:29 AM EDT 7:39 PM EDT
Civil Twilight 6:03 AM EDT 8:05 PM EDT
Nautical Twilight 5:31 AM EDT 8:36 PM EDT
Astronomical Twilight 4:59 AM EDT 9:09 PM EDT
Moon 2:00 PM EDT (8/24) No Moon Set
Length of Visible Light 14h 02m
Length of Day
13h 10m
Waxing Crescent, 51% of the Moon is Illuminated
Aug 24
Waxing Crescent
Aug 31
Full
Sep 8
Last Quarter
Sep 15
New
Sep 22
First Quarter

Hourly Weather History & Observations

Time (EDT) Temp. Heat Index Dew Point Humidity Pressure Visibility Wind Dir Wind Speed Gust Speed Precip Events Conditions
12:51 AM 73.9 °F - 72.0 °F 93% 30.07 in 10.0 mi East 3.5 mph - 0.05 in Rain Light Rain
1:51 AM 73.9 °F - 71.1 °F 91% 30.05 in 6.0 mi East 4.6 mph - 0.12 in Rain Rain
2:51 AM 73.9 °F - 71.1 °F 91% 30.03 in 7.0 mi East 5.8 mph - 0.11 in Rain Light Rain
3:26 AM 73.4 °F - 71.6 °F 94% 30.03 in 10.0 mi Calm Calm - 0.02 in Rain Light Rain
3:35 AM 73.4 °F - 71.6 °F 94% 30.04 in 10.0 mi Calm Calm - 0.02 in Rain Light Rain
3:51 AM 73.0 °F - 71.1 °F 93% 30.04 in 10.0 mi Calm Calm - 0.02 in   Mostly Cloudy
3:58 AM 73.4 °F - 71.6 °F 94% 30.03 in 10.0 mi Calm Calm - N/A   Mostly Cloudy
4:51 AM 73.0 °F - 71.1 °F 93% 30.04 in 10.0 mi Calm Calm - N/A   Overcast
5:51 AM 73.0 °F - 71.1 °F 93% 30.04 in 10.0 mi NE 4.6 mph - N/A   Clear
6:51 AM 73.9 °F - 71.1 °F 91% 30.05 in 10.0 mi Calm Calm - N/A   Clear
7:51 AM 75.0 °F - 72.0 °F 90% 30.07 in 10.0 mi NE 4.6 mph - N/A   Scattered Clouds
8:18 AM 75.2 °F - 73.4 °F 94% 30.07 in 10.0 mi NE 5.8 mph - N/A   Partly Cloudy
8:51 AM 77.0 °F - 73.0 °F 88% 30.07 in 10.0 mi ENE 5.8 mph - N/A   Clear
9:51 AM 79.0 °F - 72.0 °F 79% 30.08 in 10.0 mi NE 9.2 mph - N/A   Scattered Clouds
10:21 AM 77.0 °F - 71.6 °F 83% 30.09 in 10.0 mi ENE 9.2 mph 16.1 mph N/A   Mostly Cloudy
10:39 AM 78.8 °F - 71.6 °F 78% 30.09 in 10.0 mi ENE 12.7 mph 19.6 mph N/A   Scattered Clouds
10:51 AM 78.1 °F - 71.1 °F 79% 30.10 in 10.0 mi ENE 10.4 mph 20.7 mph N/A   Scattered Clouds
11:51 AM 80.1 °F 83.8 °F 72.0 °F 76% 30.09 in 10.0 mi ENE 11.5 mph 20.7 mph N/A   Clear
12:51 PM 82.0 °F 86.7 °F 72.0 °F 71% 30.08 in 10.0 mi ENE 9.2 mph 19.6 mph N/A   Partly Cloudy
1:51 PM 81.0 °F 84.4 °F 70.0 °F 69% 30.08 in 10.0 mi ENE 12.7 mph 23.0 mph N/A   Clear
2:51 PM 82.0 °F 86.3 °F 71.1 °F 69% 30.07 in 10.0 mi NE 10.4 mph 17.3 mph N/A   Clear
3:51 PM 82.9 °F 87.5 °F 71.1 °F 67% 30.06 in 10.0 mi ENE 9.2 mph - N/A   Clear
4:51 PM 80.1 °F 83.6 °F 71.1 °F 74% 30.05 in 10.0 mi NE 9.2 mph 18.4 mph N/A   Clear
5:51 PM 78.1 °F - 71.1 °F 79% 30.06 in 10.0 mi ENE 5.8 mph - N/A   Mostly Cloudy
6:17 PM 78.8 °F - 71.6 °F 78% 30.06 in 10.0 mi Variable 6.9 mph - N/A   Scattered Clouds
6:51 PM 77.0 °F - 71.1 °F 82% 30.05 in 10.0 mi NE 8.1 mph - N/A   Partly Cloudy
7:51 PM 75.9 °F - 72.0 °F 87% 30.05 in 10.0 mi ENE 5.8 mph - N/A   Clear
8:51 PM 75.9 °F - 71.1 °F 85% 30.05 in 10.0 mi ENE 5.8 mph - N/A   Partly Cloudy
9:51 PM 75.9 °F - 73.0 °F 91% 30.06 in 10.0 mi ENE 5.8 mph - N/A   Clear
10:51 PM 77.0 °F - 73.0 °F 88% 30.05 in 10.0 mi East 5.8 mph - N/A   Clear
11:51 PM 77.0 °F - 73.0 °F 88% 30.04 in 10.0 mi East 9.2 mph - N/A   Overcast